Location: Audignicourt
(49.4788°N, 3.1340°E)
Time: 11:25:05
(UTC+00:00)

Cosmos 2233 Rocket - Pass Details

Date: 15 May 2026
Orbit: 952 x 990 km, 82.9° (Epoch: 9 June)

Event Time Altitude Azimuth Distance (km) Brightness Sun altitude
Rises 20:06:23 0° 180° (S) 3,649 6.6 -6.3°
Reaches altitude 10° 20:08:53 10° 178° (S) 2,700 5.9 -6.6°
Maximum altitude 20:15:02 72° 95° (E) 1,012 4.0 -7.4°
Drops below altitude 10° 20:21:10 10° 13° (NNE) 2,697 6.7 -8.1°
Sets 20:23:40 0° 11° (NNE) 3,644 7.5 -8.4°
